This is the latest recevied weather packets stored in our database for station/object CQ0XCR-11. If no packets are shown the sender has not sent any weather packets the latest 1 day(s).
| Time | Temp. | Humidity | Pressure | Rain* | Wind** | Luminosity | Snow |
|---|---|---|---|---|---|---|---|
| 1778028539 | -2.78° C | - | 6550.2 hPa | 0.25 mm | 0.89 m/s, 84° | - | - |
| 1778028457 | -2.78° C | - | 6550.2 hPa | 0.25 mm | 0.45 m/s, 45° | - | - |
| 1778028416 | -2.78° C | - | 6550.2 hPa | 0.25 mm | 0.45 m/s, 45° | - | - |
| 1778028291 | -2.78° C | - | 6550.2 hPa | 0.25 mm | 0.45 m/s, 92° | - | - |
| 1778028168 | -2.78° C | - | 6550.2 hPa | 0.25 mm | 1.79 m/s, 45° | - | - |
| 1778028047 | -2.78° C | - | 6550.2 hPa | 0.25 mm | 0.89 m/s, 86° | - | - |
| 1778027920 | -2.78° C | - | 6550.2 hPa | 0.25 mm | 0.89 m/s, 80° | - | - |
| 1778027795 | -2.78° C | - | 6550.2 hPa | 0.25 mm | 0.45 m/s, 51° | - | - |
| 1778027672 | -2.78° C | - | 6550.2 hPa | 0.25 mm | 1.34 m/s, 65° | - | - |
| 1778027547 | -2.78° C | - | 6550.2 hPa | 0.25 mm | 0.45 m/s, 89° | - | - |
| 1778027424 | -2.78° C | - | 6550.2 hPa | 0.25 mm | 0.45 m/s, 120° | - | - |
| 1778027300 | -2.78° C | - | 6550.2 hPa | 0.25 mm | 0.45 m/s, 27° | - | - |
| 1778027176 | -2.78° C | - | 6550.2 hPa | 0.25 mm | 0.45 m/s, 47° | - | - |
| 1778027052 | -2.78° C | - | 6550.2 hPa | 0.25 mm | 0.45 m/s, 36° | - | - |
| 1778026928 | -2.78° C | - | 6550.2 hPa | 0.25 mm | 1.34 m/s, 36° | - | - |
| 1778026804 | -2.78° C | - | 6550.2 hPa | 0 mm | 0.89 m/s, 35° | - | - |
| 1778026681 | -2.78° C | - | 6550.2 hPa | 0 mm | 0.45 m/s, 35° | - | - |
| 1778026556 | -2.78° C | - | 6550.2 hPa | 0 mm | 0.45 m/s, 31° | - | - |
| 1778026434 | -2.78° C | - | 6550.2 hPa | 0 mm | 0.89 m/s, 45° | - | - |
| 1778026308 | -2.78° C | - | 6550.2 hPa | 0 mm | 1.79 m/s, 18° | - | - |
| 1778026184 | -2.78° C | - | 6550.2 hPa | 0 mm | 0.45 m/s, 51° | - | - |
| 1778026060 | -2.78° C | - | 6550.2 hPa | 0 mm | 1.34 m/s, 47° | - | - |
| 1778025970 | -2.78° C | - | 6550.2 hPa | 0 mm | 0.45 m/s, 45° | - | - |
| 1778025936 | -2.78° C | - | 6550.2 hPa | 0 mm | 0.45 m/s, 45° | - | - |
| 1778025812 | -2.78° C | - | 6550.2 hPa | 0 mm | 0.89 m/s, 96° | - | - |
* Rain since midnight (hover to see other rain measurements)
** Current wind speed in m/s (hover to see current wind gust speed)